| time (UTC) | temp F | wind direction | speed MPH | gust MPH | rain 1hr in | rain 24hr in | rain mn in | humidity % | barometer mb |
| 20260906230017 | 0 | 135 | 5.0 | 13.0 | 0.00 | 0.12 | 0.00 | ||
| 20260906225017 | 0 | 135 | 4.0 | 9.0 | 0.00 | 0.12 | 0.00 | ||
| 20260906224017 | 0 | 135 | 4.0 | 11.0 | 0.00 | 0.12 | 0.00 | ||
| 20260906223017 | 0 | 135 | 2.0 | 9.0 | 0.00 | 0.12 | 0.00 | ||
| 20260906222017 | 0 | 135 | 4.0 | 12.0 | 0.00 | 0.12 | 0.00 | ||
| 20260906221017 | 0 | 135 | 2.0 | 9.0 | 0.00 | 0.12 | 0.00 | ||
| 20260906220017 | 0 | 113 | 2.0 | 6.0 | 0.00 | 0.12 | 0.00 | ||
| 20260906215017 | 0 | 135 | 3.0 | 10.0 | 0.00 | 0.12 | 0.00 | ||
| 20260906214017 | 0 | 113 | 5.0 | 14.0 | 0.00 | 0.12 | 0.00 | ||
| 20260906213017 | 0 | 135 | 5.0 | 11.0 | 0.00 | 0.12 | 0.00 | ||
| 20260906212017 | 0 | 135 | 3.0 | 10.0 | 0.00 | 0.12 | 0.00 | ||
| 20260906211017 | 0 | 135 | 2.0 | 9.0 | 0.00 | 0.12 | 0.00 | ||
| 20260906210017 | 0 | 113 | 3.0 | 11.0 | 0.00 | 0.12 | 0.00 | ||
| 20260906205017 | 0 | 135 | 4.0 | 11.0 | 0.00 | 0.12 | 0.00 | ||
| 20260906204017 | 0 | 90 | 3.0 | 8.0 | 0.00 | 0.12 | 0.00 | ||
| 20260906203017 | 0 | 135 | 4.0 | 11.0 | 0.00 | 0.12 | 0.00 | ||
| 20260906202017 | 0 | 90 | 5.0 | 11.0 | 0.00 | 0.12 | 0.00 | ||
| 20260906201017 | 0 | 113 | 4.0 | 10.0 | 0.00 | 0.12 | 0.00 | ||
| 20260906200017 | 0 | 135 | 4.0 | 15.0 | 0.00 | 0.12 | 0.00 | ||
| 20260906195017 | 0 | 135 | 3.0 | 11.0 | 0.00 | 0.12 | 0.00 | ||
| 20260906194017 | 0 | 90 | 4.0 | 11.0 | 0.00 | 0.12 | 0.00 | ||
| 20260906193017 | 0 | 135 | 5.0 | 12.0 | 0.00 | 0.12 | 0.00 | ||
| 20260906192017 | 0 | 158 | 5.0 | 11.0 | 0.00 | 0.12 | 0.00 | ||
| 20260906191016 | 0 | 135 | 5.0 | 14.0 | 0.00 | 0.12 | 0.00 | ||
| 20260906190017 | 0 | 90 | 5.0 | 12.0 | 0.00 | 0.12 | 0.00 | ||
| 20260906185017 | 0 | 135 | 3.0 | 13.0 | 0.00 | 0.12 | 0.00 | ||
| 20260906184016 | 0 | 135 | 5.0 | 12.0 | 0.00 | 0.12 | 0.00 | ||
| 20260906183017 | 0 | 90 | 4.0 | 10.0 | 0.00 | 0.12 | 0.00 | ||
| 20260906182016 | 0 | 113 | 3.0 | 7.0 | 0.00 | 0.12 | 0.00 | ||
| 20260906181017 | 0 | 113 | 3.0 | 12.0 | 0.00 | 0.12 | 0.00 | ||
| 20260906180016 | 0 | 113 | 2.0 | 6.0 | 0.00 | 0.12 | 0.00 | ||
| 20260906175017 | 0 | 90 | 5.0 | 10.0 | 0.00 | 0.12 | 0.00 | ||
| 20260906174016 | 0 | 135 | 3.0 | 8.0 | 0.00 | 0.12 | 0.00 | ||
| 20260906173016 | 0 | 23 | 3.0 | 10.0 | 0.00 | 0.12 | 0.00 | ||
| 20260906172017 | 0 | 113 | 3.0 | 12.0 | 0.00 | 0.12 | 0.00 | ||
| 20260906171016 | 0 | 113 | 3.0 | 8.0 | 0.00 | 0.12 | 0.00 | ||
| 20260906170017 | 0 | 113 | 4.0 | 9.0 | 0.00 | 0.12 | 0.00 | ||
| 20260906165017 | 0 | 90 | 2.0 | 6.0 | 0.00 | 0.12 | 0.00 | ||
| 20260906164017 | 0 | 135 | 5.0 | 11.0 | 0.00 | 0.12 | 0.00 | ||
| 20260906163017 | 0 | 90 | 2.0 | 6.0 | 0.00 | 0.12 | 0.00 | ||
| 20260906162016 | 0 | 158 | 1.0 | 4.0 | 0.00 | 0.12 | 0.00 | ||
| 20260906161016 | 0 | 45 | 1.0 | 4.0 | 0.00 | 0.12 | 0.00 | ||
| 20260906160017 | 0 | 90 | 1.0 | 7.0 | 0.00 | 0.12 | 0.00 | ||
| 20260906155016 | 0 | 135 | 3.0 | 5.0 | 0.00 | 0.12 | 0.00 | ||
| 20260906154017 | 0 | 135 | 1.0 | 3.0 | 0.00 | 0.12 | 0.00 | ||
| 20260906153016 | 0 | 113 | 2.0 | 4.0 | 0.00 | 0.12 | 0.00 | ||
| 20260906152016 | 0 | 135 | 2.0 | 4.0 | 0.00 | 0.12 | 0.00 | ||
| 20260906151016 | 73 | 113 | 1.0 | 3.0 | 0.00 | 0.12 | 0.00 | 43 | 1029.9 |
| 20260906150016 | 73 | 0.0 | 2.0 | 0.00 | 0.12 | 0.00 | 45 | 1030.2 | |
| 20260906145017 | 72 | 0.0 | 2.0 | 0.00 | 0.12 | 0.00 | 45 | 1029.6 | |
| 20260906144016 | 73 | 0.0 | 0.0 | 0.00 | 0.12 | 0.00 | 43 | 1030.2 | |
| 20260906143016 | 71 | 0.0 | 0.0 | 0.00 | 0.12 | 0.00 | 52 | 1029.9 | |
| 20260906142016 | 71 | 0.0 | 0.0 | 0.00 | 0.12 | 0.00 | 54 | 1029.9 | |
| 20260906141016 | 69 | 0.0 | 0.0 | 0.00 | 0.12 | 0.00 | 54 | 1029.8 | |
| 20260906140016 | 67 | 0.0 | 0.0 | 0.00 | 0.12 | 0.00 | 58 | 1029.5 | |
| 20260906135016 | 63 | 0.0 | 0.0 | 0.00 | 0.12 | 0.00 | 64 | 1028.4 | |
| 20260906134016 | 61 | 0.0 | 0.0 | 0.00 | 0.12 | 0.00 | 63 | 1029.3 | |
| 20260906133016 | 57 | 0.0 | 0.0 | 0.00 | 0.12 | 0.00 | 74 | 1028.3 | |
| 20260906132016 | 53 | 0.0 | 0.0 | 0.00 | 0.12 | 0.00 | 79 | 1027.0 | |
| 20260906131016 | 52 | 0.0 | 0.0 | 0.00 | 0.12 | 0.00 | 77 | 1026.7 | |
| 20260906130016 | 52 | 0.0 | 0.0 | 0.00 | 0.12 | 0.00 | 77 | 1026.6 | |
| 20260906125016 | 51 | 0.0 | 0.0 | 0.00 | 0.12 | 0.00 | 79 | 1026.6 | |
| 20260906124016 | 51 | 0.0 | 0.0 | 0.00 | 0.12 | 0.00 | 78 | 1026.5 | |
| 20260906123016 | 51 | 0.0 | 0.0 | 0.00 | 0.12 | 0.00 | 77 | 1026.5 | |
| 20260906122016 | 51 | 0.0 | 0.0 | 0.00 | 0.12 | 0.00 | 77 | 1026.5 | |
| 20260906121016 | 51 | 0.0 | 0.0 | 0.00 | 0.12 | 0.00 | 79 | 1027.1 | |
| 20260906120016 | 51 | 0.0 | 0.0 | 0.00 | 0.12 | 0.00 | 80 | 1027.1 | |
| 20260906115016 | 51 | 0.0 | 0.0 | 0.00 | 0.12 | 0.00 | 79 | 1027.0 | |
| 20260906114016 | 52 | 0.0 | 0.0 | 0.00 | 0.12 | 0.00 | 79 | 1027.6 | |
| 20260906113016 | 52 | 0.0 | 0.0 | 0.00 | 0.12 | 0.00 | 78 | 1027.4 | |
| 20260906112016 | 51 | 0.0 | 0.0 | 0.00 | 0.12 | 0.00 | 82 | 1026.9 | |
| 20260906111016 | 51 | 0.0 | 0.0 | 0.00 | 0.12 | 0.00 | 81 | 1026.6 | |
| 20260906110016 | 51 | 0.0 | 0.0 | 0.00 | 0.12 | 0.00 | 83 | 1026.6 | |
| 20260906105016 | 50 | 0.0 | 0.0 | 0.00 | 0.12 | 0.00 | 85 | 1026.6 | |
| 20260906104016 | 50 | 0.0 | 0.0 | 0.00 | 0.12 | 0.00 | 86 | 1026.7 | |
| 20260906103016 | 51 | 0.0 | 0.0 | 0.00 | 0.12 | 0.00 | 84 | 1026.6 | |
| 20260906102016 | 51 | 0.0 | 0.0 | 0.00 | 0.12 | 0.00 | 84 | 1026.5 | |
| 20260906101016 | 50 | 0.0 | 0.0 | 0.00 | 0.12 | 0.00 | 86 | 1026.6 | |
| 20260906100016 | 50 | 0.0 | 0.0 | 0.00 | 0.12 | 0.00 | 85 | 1026.6 | |
| 20260906095016 | 50 | 0.0 | 0.0 | 0.00 | 0.12 | 0.00 | 87 | 1026.6 | |
| 20260906094016 | 50 | 0.0 | 0.0 | 0.00 | 0.12 | 0.00 | 87 | 1026.3 | |
| 20260906093016 | 50 | 0.0 | 0.0 | 0.00 | 0.12 | 0.00 | 88 | 1026.4 | |
| 20260906092016 | 50 | 0.0 | 0.0 | 0.00 | 0.12 | 0.00 | 89 | 1026.3 | |
| 20260906091016 | 50 | 0.0 | 0.0 | 0.00 | 0.12 | 0.00 | 90 | 1026.7 | |
| 20260906090016 | 50 | 0.0 | 0.0 | 0.00 | 0.12 | 0.00 | 90 | 1026.6 | |
| 20260906085016 | 50 | 0.0 | 0.0 | 0.00 | 0.12 | 0.00 | 91 | 1026.6 | |
| 20260906084016 | 50 | 0.0 | 0.0 | 0.00 | 0.12 | 0.00 | 92 | 1026.5 | |
| 20260906083016 | 50 | 0.0 | 0.0 | 0.00 | 0.12 | 0.00 | 92 | 1026.4 | |
| 20260906082016 | 50 | 0.0 | 0.0 | 0.00 | 0.12 | 0.00 | 93 | 1026.5 | |
| 20260906081016 | 50 | 0.0 | 0.0 | 0.00 | 0.12 | 0.00 | 93 | 1026.5 | |
| 20260906080016 | 50 | 0.0 | 0.0 | 0.00 | 0.12 | 0.00 | 94 | 1026.6 | |
| 20260906075016 | 50 | 0.0 | 0.0 | 0.00 | 0.12 | 0.00 | 94 | 1026.6 | |
| 20260906074016 | 50 | 0.0 | 0.0 | 0.00 | 0.12 | 0.00 | 95 | 1026.1 | |
| 20260906073015 | 50 | 0.0 | 0.0 | 0.00 | 0.12 | 0.00 | 95 | 1026.2 | |
| 20260906072015 | 50 | 0.0 | 0.0 | 0.00 | 0.12 | 0.00 | 95 | 1026.1 | |
| 20260906071015 | 50 | 0.0 | 0.0 | 0.00 | 0.12 | 0.00 | 95 | 1027.1 | |
| 20260906070015 | 50 | 0.0 | 0.0 | 0.00 | 0.12 | 0.00 | 95 | 1027.0 | |
| 20260906065016 | 50 | 0.0 | 0.0 | 0.00 | 0.12 | 0.00 | 94 | 1027.0 | |
| 20260906064016 | 50 | 0.0 | 0.0 | 0.00 | 0.12 | 0.00 | 94 | 1027.1 | |
| 20260906063015 | 51 | 0.0 | 0.0 | 0.00 | 0.12 | 0.00 | 94 | 1027.2 | |
| 20260906062015 | 51 | 0.0 | 0.0 | 0.00 | 0.12 | 0.00 | 94 | 1027.3 | |
| 20260906061016 | 51 | 0.0 | 0.0 | 0.00 | 0.12 | 0.00 | 93 | 1027.9 | |
| 20260906060015 | 51 | 0.0 | 0.0 | 0.00 | 0.12 | 0.12 | 93 | 1027.9 | |
| 20260906055016 | 52 | 0.0 | 0.0 | 0.00 | 0.12 | 0.12 | 93 | 1028.4 | |
| 20260906054015 | 52 | 0.0 | 0.0 | 0.00 | 0.12 | 0.12 | 92 | 1027.0 | |
| 20260906053015 | 53 | 0.0 | 0.0 | 0.01 | 0.13 | 0.12 | 91 | 1027.5 | |
| 20260906052015 | 54 | 0.0 | 0.0 | 0.01 | 0.13 | 0.12 | 92 | 1027.7 | |
| 20260906051015 | 54 | 0.0 | 0.0 | 0.02 | 0.13 | 0.12 | 91 | 1028.3 | |
| 20260906050015 | 55 | 0.0 | 0.0 | 0.09 | 0.13 | 0.12 | 91 | 1028.4 | |
| 20260906045015 | 56 | 0.0 | 0.0 | 0.10 | 0.13 | 0.12 | 91 | 1028.4 | |
| 20260906044015 | 56 | 0.0 | 2.0 | 0.10 | 0.13 | 0.12 | 89 | 1028.6 | |
| 20260906043015 | 57 | 0.0 | 0.0 | 0.10 | 0.13 | 0.11 | 88 | 1029.2 | |
| 20260906042015 | 57 | 0.0 | 1.0 | 0.10 | 0.13 | 0.11 | 84 | 1029.4 | |
| 20260906041016 | 59 | 0.0 | 2.0 | 0.09 | 0.13 | 0.10 | 77 | 1030.3 | |
| 20260906040016 | 66 | 315 | 2.0 | 9.0 | 0.02 | 0.06 | 0.03 | 54 | 1031.8 |
| 20260906035015 | 67 | 315 | 1.0 | 5.0 | 0.01 | 0.05 | 0.02 | 46 | 1031.5 |
| 20260906034016 | 67 | 0.0 | 2.0 | 0.01 | 0.05 | 0.02 | 44 | 1031.0 | |
| 20260906033015 | 66 | 0.0 | 0.0 | 0.00 | 0.05 | 0.01 | 44 | 1030.8 | |
| 20260906032016 | 65 | 0.0 | 1.0 | 0.00 | 0.05 | 0.01 | 45 | 1030.1 | |
| 20260906031015 | 64 | 0.0 | 1.0 | 0.00 | 0.05 | 0.01 | 47 | 1029.6 | |
| 20260906030016 | 63 | 0.0 | 0.0 | 0.00 | 0.05 | 0.01 | 47 | 1029.2 | |
| 20260906025015 | 63 | 0.0 | 0.0 | 0.01 | 0.05 | 0.01 | 47 | 1029.2 | |
| 20260906024015 | 63 | 0.0 | 0.0 | 0.01 | 0.05 | 0.01 | 46 | 1027.9 | |
| 20260906023015 | 63 | 0.0 | 0.0 | 0.01 | 0.05 | 0.01 | 46 | 1028.0 | |
| 20260906022015 | 63 | 0.0 | 0.0 | 0.01 | 0.05 | 0.01 | 46 | 1027.9 | |
| 20260906021015 | 64 | 0.0 | 0.0 | 0.01 | 0.05 | 0.01 | 45 | 1025.2 | |
| 20260906020015 | 65 | 0.0 | 0.0 | 0.01 | 0.05 | 0.01 | 43 | 1025.5 | |
| 20260906015015 | 66 | 0.0 | 0.0 | 0.00 | 0.04 | 0.00 | 41 | 1025.4 | |
| 20260906014015 | 67 | 0.0 | 1.0 | 0.00 | 0.04 | 0.00 | 41 | 1023.7 | |
| 20260906013015 | 68 | 0.0 | 0.0 | 0.00 | 0.04 | 0.00 | 39 | 1024.1 | |
| 20260906012015 | 70 | 0.0 | 0.0 | 0.00 | 0.04 | 0.00 | 36 | 1024.6 | |
| 20260906011015 | 71 | 0.0 | 1.0 | 0.00 | 0.04 | 0.00 | 34 | 1024.5 | |
| 20260906010017 | 72 | 0.0 | 1.0 | 0.00 | 0.04 | 0.00 | 33 | 1024.7 | |
| 20260906005015 | 73 | 0.0 | 1.0 | 0.00 | 0.04 | 0.00 | 32 | 1025.2 | |
| 20260906004017 | 73 | 135 | 1.0 | 3.0 | 0.00 | 0.04 | 0.00 | 32 | 1025.3 |
| 20260906003015 | 74 | 0.0 | 1.0 | 0.00 | 0.04 | 0.00 | 32 | 1025.3 | |
| 20260906002017 | 74 | 0.0 | 2.0 | 0.00 | 0.04 | 0.00 | 31 | 1025.3 | |
| 20260906001015 | 74 | 90 | 2.0 | 7.0 | 0.00 | 0.04 | 0.00 | 31 | 1025.9 |
| 20260906000017 | 75 | 113 | 2.0 | 7.0 | 0.00 | 0.04 | 0.00 | 30 | 1025.9 |
| 20260905235017 | 75 | 135 | 1.0 | 6.0 | 0.00 | 0.04 | 0.00 | 30 | 1025.8 |
| 20260905234017 | 76 | 135 | 4.0 | 7.0 | 0.00 | 0.04 | 0.00 | 29 | 1025.7 |
| 20260905233017 | 76 | 0.0 | 2.0 | 0.00 | 0.04 | 0.00 | 29 | 1026.2 | |
| 20260905232017 | 76 | 0.0 | 2.0 | 0.00 | 0.04 | 0.00 | 29 | 1026.2 | |
| 20260905231017 | 76 | 113 | 1.0 | 5.0 | 0.00 | 0.04 | 0.00 | 29 | 1026.2 |